Location: Ferintosh
(52.7647°N, 112.9692°W)
Time: 05:11:12
(UTC+00:00)

Transit 2A Rocket - Pass Details

Date: 27 May 2024
Orbit: 591 x 895 km, 66.7° (Epoch: 22 May)

Event Time Altitude Azimuth Distance (km) Brightness Sun altitude
Rises 18:34:42 0° 319° (NW) 3,388 8.0 57.0°
Reaches altitude 10° 18:37:07 10° 316° (NW) 2,487 7.5 57.1°
Maximum altitude 18:42:52 65° 237° (WSW) 970 6.6 57.5°
Drops below altitude 10° 18:48:48 10° 157° (SSE) 2,567 8.4 57.8°
Sets 18:51:20 0° 154° (SSE) 3,505 8.9 57.9°
